weather.gov     
National Weather Service

Regional Weather Roundup
NWS Homepage
This page is being discontinued on March 12, 2014.
The same data is available at this site. Please update your bookmarks.
Thank you, and we apologize for the inconvenience.
Please send an email to SR-SRH.Webmaster@noaa.gov with any concerns.


Current Version
Previous Version:    01  02  03  04  05  06  07  08  09  10  11  12  13  14  15  16  17  18  19  20  21  22  23  24  25  26  27  
[Printable]
958
ASUS41 KBOX 210710
RWRBOX

REGIONAL WEATHER ROUNDUP
NATIONAL WEATHER SERVICE TAUNTON MA
300 AM EDT TUE OCT 21 2014

NOTE:  "FAIR" INDICATES FEW OR NO CLOUDS BELOW 12,000 FEET WITH NO
SIGNIFICANT WEATHER AND/OR OBSTRUCTIONS TO VISIBILITY.  THE FOLLOWING
OBSERVATION LOCATIONS DO NOT REPORT PRESENT WEATHER...PROVINCETOWN...
SMITHFIELD...BLOCK ISLAND...KEENE...AND OXFORD.

MAZALL-210800-
EASTERN MASSACHUSETTS

CITY           SKY/WX    TMP DP  RH WIND       PRES   REMARKS
BOSTON         CLOUDY    50  44  80 S3        29.99F
BEVERLY        CLOUDY    44  39  82 CALM      29.99F
LAWRENCE       CLOUDY    47  41  80 CALM      30.01S
BEDFORD        CLOUDY    43  40  89 CALM      29.97F
BLUE HILL        N/A     50  44  80 S8        29.98F
NORWOOD        CLOUDY    39  38  96 CALM      29.99F
MARSHFIELD     NOT AVBL
PLYMOUTH       LGT RAIN  48  47  96 CALM      30.00F
TAUNTON        LGT RAIN  45  43  93 CALM      29.99F
NEW BEDFORD    MOCLDY    46  44  93 CALM      29.98F
$$

MAZALL-210800-
CAPE COD AND THE ISLANDS

CITY           SKY/WX    TMP DP  RH WIND       PRES   REMARKS
FALMOUTH       MOCLDY    48  46  93 CALM      30.00F
HYANNIS        MOCLDY    58  49  72 S5        29.99F
CHATHAM        CLOUDY    55  50  83 SE5       30.03F
PROVINCETOWN   CLOUDY    55  46  71 E5        30.01F
NANTUCKET      LGT RAIN  58  52  80 S6        30.02F
MARTHAS VNYRD  CLOUDY    59  51  75 SW6       30.00F
$$

MAZALL-210800-
CENTRAL AND WESTERN MASSACHUSETTS

CITY           SKY/WX    TMP DP  RH WIND       PRES   REMARKS
WORCESTER      CLOUDY    46  40  79 SW5       29.96F
FITCHBURG      CLOUDY    46  40  79 CALM      29.99F
ORANGE         CLOUDY    44  41  89 CALM      29.96F
SPRINGFIELD    CLOUDY    42  40  94 NE3       29.95F
WESTFIELD      CLOUDY    45  41  86 CALM      29.96F
NORTH ADAMS    CLOUDY    47  39  74 E7        29.94F
PITTSFIELD     CLOUDY    42  41  96 CALM      29.92F
$$

RIZALL-210800-
RHODE ISLAND

CITY           SKY/WX    TMP DP  RH WIND       PRES   REMARKS
PROVIDENCE     MOCLDY    46  42  86 CALM      29.98F
NEWPORT        MOCLDY    60  50  69 S7        29.98F
BLOCK ISLAND   CLOUDY    61  46  59 SW8       29.96F
SMITHFIELD     MOCLDY    45  37  76 SE3       29.97F
WESTERLY       MOCLDY    60  51  72 SW8       29.96F
$$

CTZALL-210800-
CONNECTICUT

CITY           SKY/WX    TMP DP  RH WIND       PRES   REMARKS
BRADLEY INTL   CLOUDY    46  41  82 CALM      29.95F
HARTFORD       CLOUDY    47  44  90 MISG      29.95F
BRIDGEPORT     MOCLDY    52  45  77 CALM      29.95F
DANBURY        CLOUDY    44  29  55 CALM      29.94F
GROTON         MOCLDY    50  48  93 N6        29.95F
NEW HAVEN      CLOUDY    52  43  71 N6        29.94F
CHESTER        NOT AVBL
MERIDEN        CLOUDY    44  41  89 NW3       29.95F
WILLIMANTIC    MOCLDY    41  38  89 CALM      29.98F
OXFORD         CLOUDY    48  41  76 CALM      29.95S
$$

MEZ002-015-021-024-NHZ003-005-008-011-012-014-VTZ005-008-210800-
NORTHERN NEW ENGLAND

CITY           SKY/WX    TMP DP  RH WIND       PRES   REMARKS
PORTLAND ME    CLOUDY    47  40  76 NW3       30.01S
BANGOR ME      MOCLDY    40  35  83 CALM      30.03R
CONCORD NH     CLOUDY    45  42  89 CALM      29.99S
MANCHESTER NH  CLOUDY    49  37  63 CALM      29.98S
NASHUA NH      CLOUDY    47  42  82 CALM      30.00S
PORTSMOUTH NH  CLOUDY    45  38  78 CALM      29.99S
JAFFREY NH     LGT RAIN  43  39  86 CALM      29.98S
KEENE NH       CLOUDY    45  36  70 CALM      29.97F
BURLINGTON VT  CLOUDY    47  38  71 SE5       29.92S
MT. WASHINGTON FOG       27  27 100 W28         N/A  VSB 1/16WCI  11
$$

NYZ052-076-210800-
EASTERN NEW YORK

CITY           SKY/WX    TMP DP  RH WIND       PRES   REMARKS
ALBANY         LGT RAIN  49  43  80 S3        29.92S
NEW YORK CITY  CLOUDY    57  44  62 S5        29.92F
$$

ANZALL-210800-
MARINE OBSERVATIONS

STATION/POSITION TIME  TEMP    WIND        PRES    VSBY  WAVE
                       AIR SEA DIR/SP/G                  HT/PER
                 (UTC) (F)     (DEG/KT/KT) (MB)    (MI)  (FT/S)
BOSTON BUOY      NOT AVBL
BUZZARDS BAY     NOT AVBL
NANTUCKET SOUND  NOT AVBL
MASS BAY-STELLWA NOT AVBL
ISLE OF SHOALS   NOT AVBL
S OF BLOCK IS    NOT AVBL
$$

......................KEY.........................
  SKY/WX - SKY CONDITION/PRESENT WEATHER
  TMP    - TEMPERATURE IN FAHRENHEIT
  DWPT   - DEWPOINT IN FAHRENHEIT
  RH     - RELATIVE HUMIDITY IN PERCENT
  WIND   - DIRECTION AND SPEED IN MPH
  PRES   - MEAN SEA LEVEL PRESSURE IN INCHES OF HG
  WCI    - WIND CHILL INDEX
  VSB    - VISIBILITY IN MILES
  HX     - HEAT INDEX
  TC     - TEMPERATURE IN CELSIUS
  VRB    - VARIABLE WIND DIRECTION
  N/A    - NOT AVAILABLE




U.S. Dept. of Commerce
NOAA National Weather Service
1325 East West Highway
Silver Spring, MD 20910
E-mail: w-nws.webmaster@noaa.gov
Page last modified: May 16, 2007
NATIONAL WEATHER SERVICE: for Safety, for Work, for Fun - FOR LIFE